Location: Tamazert
(32.6352°N, 5.2072°W)
Time: 06:45:37
(UTC+00:00)

Tiros 1 despin weight - Pass Details

Date: 12 October 2022
Orbit: 590 x 637 km, 48.2° (Epoch: 28 November)

Event Time Altitude Azimuth Distance (km) Brightness Sun altitude
Rises 17:29:17 0° 317° (NW) 2,855 ? 3.8°
Reaches altitude 10° 17:31:59 10° 332° (NNW) 1,959 ? 3.3°
Maximum altitude 17:35:34 23° 25° (NNE) 1,321 ? 2.5°
Drops below altitude 10° 17:39:11 10° 78° (ENE) 1,980 ? 1.8°
Sets 17:41:55 0° 93° (E) 2,894 ? 1.2°
